Flag for Germany Weather past 2 weeks in Homburg (Saar), Saarland, Germany

Now
55 °F

Sunny.


Feels Like: 55 °F
Forecast: 41 / 68 °F
Wind: 3 mph from North

Location: Zweibrucken - Rheinland-Pfalz


UV Index: 3 (Moderate)

Visibility: 10 mi


Pressure: 29.65 "Hg

Humidity: 67%

Dew point: 45 °F

Location of Homburg (Saar)Location

Historic Weather in Homburg (Saar)

°F

Homburg (Saar) temperature yesterday

Maximum temperature yesterday: 64 °F (at 4:20 PM)
Minimum temperature yesterday: 54 °F (at 8:50 AM)
Average temperature yesterday: 61 °F

Past Weeks' High & Low Weather Summary

 TemperatureHumidityPressure
High68 °F (Apr 7, 12:50 PM)100% (Apr 6, 9:20 AM)30.36 "Hg (Apr 6, 9:20 AM)
Low34 °F (Apr 9, 7:20 AM)29% (Apr 17, 4:50 PM)29.65 "Hg (Apr 20, 4:20 PM)
Average54 °F58%30.08 "Hg
* Reported Apr 6 9:20 AM — Apr 21 9:20 AM, Homburg (Saar), Weather by CustomWeather, © 2014

Note: Actual official high and low records may vary slightly from our data, if they occured in-between our weather recording intervals... More about our weather records

Advertising

Historic Weather Conditions — Data for Previous 24 hours

 ConditionsComfort  
Time TempWeatherWind HumidityBarometerVisibility
9:20 AM
Apr 21
54 °FSunny.2 mph67%29.65 "Hg10 mi
8:50 AM52 °FSunny.1 mph67%29.65 "Hg10 mi
8:50 PM
Apr 20
59 °FSunny.3 mph63%29.65 "Hg10 mi
8:20 PM59 °FSunny.2 mph63%29.65 "Hg10 mi
7:50 PM59 °FSunny.1 mph59%29.65 "Hg10 mi
7:20 PM59 °FSunny.2 mph63%29.65 "Hg10 mi
6:50 PM61 °FPassing clouds.6 mph59%29.65 "HgN/A
6:20 PM61 °FPartly sunny.8 mph59%29.65 "HgN/A
5:50 PM64 °FPartly sunny.8 mph52%29.65 "HgN/A
5:20 PM61 °FBroken clouds.8 mph59%29.65 "HgN/A
4:50 PM63 °FScattered clouds.5 mph56%29.65 "HgN/A
4:20 PM64 °FScattered clouds.8 mph56%29.65 "HgN/A
3:50 PM63 °FPassing clouds.9 mph59%29.68 "HgN/A
3:20 PM63 °FPassing clouds.8 mph56%29.68 "HgN/A
2:50 PM63 °FPassing clouds.8 mph64%29.68 "HgN/A
2:20 PM61 °FBroken clouds.8 mph59%29.68 "HgN/A
1:50 PM61 °FBroken clouds.10 mph59%29.68 "HgN/A
1:20 PM63 °FPartly sunny.9 mph59%29.68 "HgN/A
12:50 PM63 °FBroken clouds.7 mph64%29.68 "HgN/A
12:20 PM63 °FBroken clouds.8 mph64%29.68 "HgN/A
11:50 AM63 °FBroken clouds.7 mph68%29.71 "HgN/A
11:20 AM61 °FBroken clouds.6 mph68%29.71 "HgN/A
10:50 AM61 °FBroken clouds.9 mph68%29.71 "HgN/A
10:20 AM63 °FPartly sunny.8 mph64%29.71 "HgN/A
Weather by CustomWeather, © 2014

See weather overview